User: anonymous   Login
Location: Unspecified
(0.0000°N, 0.0000°E)
Time: 00:07:16
(UTC+00:00)
Language:

N. Korean satellite - Orbit

View from above orbital plane
View from above orbital plane
View from above satellite
View from above satellite

Ground track
Ground track

The orbit data is extracted from the following two-line orbital elements,

1 39026U 12072A   17264.95210996 +.00001415 +00000-0 +56946-4 0  9998
2 39026 097.2213 279.4913 0039827 191.8071 168.2238 15.25802398264686
Epoch (UTC): 21 September 2017 22:51:02
Eccentricity: 0.0039827
inclination: 97.2213°
perigee height: 461 km
apogee height: 516 km
right ascension of ascending node: 279.4913°
argument of perigee: 191.8071°
revolutions per day: 15.25802398
mean anomaly at epoch: 168.2238°
orbit number at epoch: 26468

The dashed part of the orbit path shows where the satellite is in the earth's shadow,  

DLR